THORAD DELTA 1 DEB, 42606

Orbit data source: Space-Track

THORAD DELTA 1 DEB, 42606 is space debris in SSO originally from a launch on Fri, 15 Nov 1974 UTC launched from the Air Force Western Test Range (AFWTR). Debris objects in space refer to the collection of defunct objects orbiting the Earth. Examples of debris include non-operational satellites, rocket bodies, and fragments generated from explosions, collisions, or faulty payload assembly.

Loading next visibility...
Identifier
42606, 1974-089FX
Orbit
SSO
Country
Flag of USUS
Related business
Manufacturer
Unknown
Mission
Spacecraft
Bus & Motor
Unknown
Mass
Unknown
Launch date (UTC)
1974-11-15 (51 years ago)
Launch vehicle
Unknown
Launch site
Air Force Western Test Range (AFWTR)
Object type
Payload
Rocket body
Debris
Shape & HBR
Unknown shape, 0.1 m
Radar Cross Section
Small (<0.1 m²)

Expand to show TLE details & history
Last TLE update: 3 weeks ago

TLE from 3 weeks ago
0 THORAD DELTA 1 DEB
1 42606U 74089FX  25333.56806922  .00000267  00000-0  14451-2 0  9992
2 42606 102.1393 238.0032 0186219 332.6271 149.4097 12.72415152547064
Epoch: 2025-11-29T13:38Z
TLE epoch observation values (Epoch: 2025-11-29T13:38:01.180Z)
Latitude
55.07646°
Longitude
162.65633°
Altitude
1,505.962 km
Speed
7.059 km/s
True Right ascension
05h 03m 25s
True Declination
54° 55' 49"
Sunlit
Object was in full shadow at epoch
Visualization orbit readout
Latitude
Unknown
Longitude
Unknown
Altitude
Unknown
Speed
Unknown
Apparent Right ascension
Unknown
Apparent Declination
Unknown
Sunlit
N/A
Visualization observer readout
Local Sidereal Time
06:59:30
Azimuth
Unknown
Elevation
Unknown
Doppler factor
Unknown
Orbital elements
Apogee altitude
1,513.936 km
Perigee altitude
1,225.378 km
Semi-major axis
7,747.794 km
Eccentricity
0.01862
Inclination
102.1393°
RAAN
238.0032°
Arg. of periapsis
332.6271°
True anomaly
150.47423°
Mean anomaly
149.4097°
Eccentric anomaly
149.94408°
Mean motion
3.18256 °/min
Orbital period
113.12 mins
BSTAR
0.0014451
Loading maneuver chart data...
Computing Atmospheric mass density...

Documentation

Showing up to 5 results
|